Weather History for Milton, FL

Change the Weather History Date:

Saturday, February 25, 2012

  Actual Average (KNSE) Record (KNSE)
Temperature  
Mean Temperature 54 °F -  
Max Temperature 62 °F 64 °F 82 °F (2011)
Min Temperature 45 °F 46 °F 34 °F (1999)
Degree Days  
Heating Degree Days 12    
Growing Degree Days 4 (Base 50)    
Moisture  
Dew Point 26 °F    
Average Humidity 38    
Maximum Humidity 61    
Minimum Humidity 18    
Precipitation  
Precipitation 0.00 in - - ()
Sea Level Pressure  
Sea Level Pressure 30.26 in    
Wind  
Wind Speed 11 mph (NNE)    
Max Wind Speed 18 mph    
Max Gust Speed 25 mph    
Visibility 10 miles    
Events      
Averages and records for this station are not official NWS values.
T = Trace of Precipitation, MM = Missing Value Source: NWS Daily Summary

Daily Weather History Graph

Daily Weather History Graph

Search for Another Location

Airport:

Trip Planner

Search our weather history database for the weather conditions in past years. The results will help you decide how hot, cold, wet, or windy it might be!

Date:

Astronomy

Feb. 25, 2012 Rise Set
Actual Time 6:19 AM CST 5:43 PM CST
Civil Twilight 5:55 AM CST 6:07 PM CST
Nautical Twilight 5:27 AM CST 6:35 PM CST
Astronomical Twilight 4:59 AM CST 7:03 PM CST
Moon 8:02 AM CST (2/25) 9:22 PM CST (2/25)
Length of Visible Light 12h 12m
Length of Day
11h 24m
Waxing Crescent, 14% of the Moon is Illuminated
Feb 25
Waxing Crescent
Feb 29
First Quarter
Mar 8
Full
Mar 14
Last Quarter
Mar 22
New

Hourly Weather History & Observations

Time (CST) Temp. Windchill Dew Point Humidity Pressure Visibility Wind Dir Wind Speed Gust Speed Precip Events Conditions
12:56 AM 52.0 °F - 28.0 °F 40% 30.16 in 10.0 mi North 18.4 mph 25.3 mph 0.00 in   Overcast
1:56 AM 51.1 °F - 27.0 °F 39% 30.21 in 10.0 mi North 13.8 mph - N/A   Scattered Clouds
3:56 AM 48.9 °F - 26.1 °F 41% 30.21 in 10.0 mi North 8.1 mph - N/A   Clear
4:56 AM 48.0 °F - 27.0 °F 44% 30.24 in 10.0 mi North 6.9 mph - N/A   Clear
5:56 AM 46.0 °F 43.1 °F 28.0 °F 50% 30.25 in 10.0 mi North 5.8 mph - N/A   Clear
6:56 AM 45.0 °F 41.8 °F 28.9 °F 53% 30.28 in 10.0 mi North 5.8 mph - N/A   Clear
7:56 AM 46.9 °F - 28.9 °F 50% 30.30 in 10.0 mi North 8.1 mph - N/A   Clear
8:56 AM 50.0 °F - 28.9 °F 44% 30.32 in 10.0 mi NNE 9.2 mph - N/A   Clear
9:56 AM 54.0 °F - 23.0 °F 30% 30.32 in 10.0 mi NNE 13.8 mph - N/A   Clear
10:56 AM 57.9 °F - 23.0 °F 26% 30.31 in 10.0 mi NNE 12.7 mph - N/A   Clear
11:56 AM 60.1 °F - 23.0 °F 24% 30.26 in 10.0 mi North 12.7 mph - N/A   Clear
12:56 PM 62.1 °F - 18.0 °F 18% 30.24 in 10.0 mi NNE 13.8 mph 19.6 mph N/A   Clear
1:56 PM 61.0 °F - 19.9 °F 21% 30.22 in 10.0 mi North 11.5 mph 19.6 mph N/A   Clear
2:56 PM 59.0 °F - 18.0 °F 20% 30.23 in 10.0 mi North 10.4 mph - N/A   Clear
3:56 PM 57.0 °F - 18.0 °F 22% 30.23 in 10.0 mi North 12.7 mph - N/A   Clear
4:56 PM 55.9 °F - 21.9 °F 27% 30.26 in 10.0 mi North 5.8 mph - N/A   Clear
5:56 PM 53.1 °F - 26.1 °F 35% 30.26 in 10.0 mi Calm Calm - N/A   Clear
6:56 PM 52.0 °F - 27.0 °F 38% 30.27 in 10.0 mi NNE 4.6 mph - N/A   Clear
7:56 PM 51.1 °F - 27.0 °F 39% 30.25 in 10.0 mi NNE 8.1 mph - N/A   Clear
8:56 PM 46.9 °F - 30.0 °F 52% 30.27 in 10.0 mi North 4.6 mph - N/A   Clear
9:56 PM 50.0 °F - 28.9 °F 44% 30.26 in 10.0 mi NNE 5.8 mph - N/A   Clear
10:56 PM 46.9 °F - 34.0 °F 61% 30.28 in 10.0 mi South 5.8 mph - N/A   Clear
11:56 PM 48.0 °F - 35.1 °F 61% 30.27 in 10.0 mi Calm Calm - N/A   Clear